RYR518E LRBS-EPKK

Flight info

Callsign RYR518E
Flight time 1h 12m
Altitude 38000
Route BUKEL DCT PELUR DCT EDETA DCT KENIN DCT LENOV
Aircraft B738/M-SDFGIJ1LRWY/SB1

Departure

Time 2026-05-05 05:55
Airport Bucharest Băneasa Aurel Vlaicu International Airport (LRBS)

Arrival

Time 2026-05-05 07:08
Airport Kraków John Paul II International Airport (EPKK)
Time Latitude Longitude Altitude Speed Heading
2026-05-05 05:14 44.49659 26.08209 305 ft 0 kts 182°
2026-05-05 05:47 44.49663 26.08209 305 ft 2 kts 182°
2026-05-05 05:47 44.49678 26.08210 305 ft 2 kts 182°
2026-05-05 05:47 44.49688 26.08210 305 ft 1 kts 182°
2026-05-05 05:48 44.49703 26.08208 305 ft 2 kts 155°
2026-05-05 05:48 44.49715 26.08197 304 ft 2 kts 133°
2026-05-05 05:48 44.49723 26.08179 304 ft 2 kts 108°
2026-05-05 05:48 44.49725 26.08170 304 ft 1 kts 96°
2026-05-05 05:49 44.49725 26.08164 304 ft 0 kts 100°
2026-05-05 05:52 44.49724 26.08171 304 ft 2 kts 100°
2026-05-05 05:52 44.49720 26.08210 304 ft 5 kts 99°
2026-05-05 05:52 44.49711 26.08280 304 ft 9 kts 103°
2026-05-05 05:52 44.49685 26.08385 301 ft 10 kts 101°
2026-05-05 05:53 44.49728 26.08448 298 ft 10 kts
2026-05-05 05:53 44.49776 26.08422 298 ft 7 kts 279°
2026-05-05 05:53 44.49783 26.08356 300 ft 7 kts 279°
2026-05-05 05:53 44.49793 26.08268 302 ft 10 kts 279°
2026-05-05 05:54 44.49809 26.08174 303 ft 9 kts 320°
2026-05-05 05:54 44.49878 26.08170 301 ft 10 kts 20°
2026-05-05 05:54 44.49920 26.08283 298 ft 15 kts 72°
2026-05-05 05:54 44.49954 26.08441 296 ft 21 kts 74°
2026-05-05 05:55 44.50037 26.08850 293 ft 79 kts 74°
2026-05-05 05:55 44.50255 26.09905 294 ft 145 kts 73°
2026-05-05 05:55 44.50573 26.11450 690 ft 170 kts 73°
2026-05-05 05:55 44.50855 26.13027 1499 ft 173 kts 77°
2026-05-05 05:56 44.51095 26.14697 2148 ft 185 kts 78°
2026-05-05 05:56 44.51345 26.16558 2633 ft 208 kts 79°
2026-05-05 05:56 44.51552 26.18537 3632 ft 206 kts 81°
2026-05-05 05:56 44.51701 26.20567 4360 ft 220 kts 83°
2026-05-05 05:57 44.51808 26.22742 5123 ft 232 kts 83°
2026-05-05 05:57 44.51924 26.25061 5833 ft 247 kts 82°
2026-05-05 05:57 44.52060 26.27508 6547 ft 261 kts 81°
2026-05-05 05:57 44.52203 26.30008 7511 ft 264 kts 81°
2026-05-05 05:58 44.52344 26.32561 8468 ft 268 kts 81°
2026-05-05 05:58 44.52491 26.35166 9380 ft 272 kts 78°
2026-05-05 05:58 44.53080 26.37614 10294 ft 267 kts 52°
2026-05-05 05:58 44.54453 26.39322 10945 ft 276 kts 27°
2026-05-05 05:59 44.56344 26.40052 11533 ft 292 kts
2026-05-05 05:59 44.58410 26.39794 12075 ft 312 kts 351°
2026-05-05 05:59 44.60584 26.39003 12690 ft 327 kts 347°
2026-05-05 05:59 44.62766 26.38092 13573 ft 331 kts 347°
2026-05-05 06:00 44.64951 26.37165 14441 ft 335 kts 347°
2026-05-05 06:00 44.67215 26.36220 15296 ft 339 kts 347°
2026-05-05 06:00 44.69479 26.35290 16089 ft 344 kts 347°
2026-05-05 06:00 44.71763 26.34360 16887 ft 348 kts 347°
2026-05-05 06:01 44.74108 26.33410 17661 ft 353 kts 347°
2026-05-05 06:01 44.76481 26.32446 18405 ft 359 kts 346°
2026-05-05 06:01 44.78772 26.31052 19133 ft 369 kts 329°
2026-05-05 06:01 44.80707 26.28684 19966 ft 375 kts 317°
2026-05-05 06:02 44.82461 26.25890 20679 ft 381 kts 313°
2026-05-05 06:02 44.84133 26.23000 21426 ft 385 kts 312°
2026-05-05 06:02 44.85803 26.20075 22155 ft 388 kts 312°
2026-05-05 06:02 44.87494 26.17150 22907 ft 390 kts 312°
2026-05-05 06:03 44.89246 26.14175 23608 ft 393 kts 313°
2026-05-05 06:03 44.91011 26.11224 24260 ft 396 kts 313°
2026-05-05 06:03 44.92778 26.08297 24891 ft 400 kts 313°
2026-05-05 06:03 44.94608 26.05280 25493 ft 404 kts 313°
2026-05-05 06:04 44.96421 26.02300 26085 ft 407 kts 313°
2026-05-05 06:04 44.98291 25.99229 26656 ft 411 kts 313°
2026-05-05 06:04 45.00156 25.96165 27190 ft 416 kts 313°
2026-05-05 06:04 45.02033 25.93078 27783 ft 418 kts 313°
2026-05-05 06:05 45.03931 25.89955 28261 ft 423 kts 313°
2026-05-05 06:05 45.05837 25.86815 28787 ft 427 kts 313°
2026-05-05 06:05 45.07771 25.83625 29318 ft 430 kts 313°
2026-05-05 06:05 45.09744 25.80365 29845 ft 432 kts 313°
2026-05-05 06:06 45.11711 25.77208 30302 ft 435 kts 316°
2026-05-05 06:06 45.13881 25.74208 30838 ft 435 kts 320°
2026-05-05 06:06 45.16149 25.71356 31384 ft 435 kts 322°
2026-05-05 06:06 45.18440 25.68571 32228 ft 428 kts 322°
2026-05-05 06:07 45.20684 25.65851 32791 ft 427 kts 322°
2026-05-05 06:07 45.22916 25.63122 33380 ft 425 kts 322°
2026-05-05 06:07 45.25134 25.60376 33921 ft 424 kts 322°
2026-05-05 06:07 45.27335 25.57618 34443 ft 423 kts 321°
2026-05-05 06:08 45.29496 25.54885 34892 ft 423 kts 321°
2026-05-05 06:08 45.31684 25.52098 35327 ft 422 kts 321°
2026-05-05 06:08 45.33865 25.49305 35774 ft 421 kts 321°
2026-05-05 06:08 45.36021 25.46532 36173 ft 420 kts 321°
2026-05-05 06:09 45.38190 25.43734 36626 ft 420 kts 320°
2026-05-05 06:09 45.40322 25.40977 37119 ft 420 kts 320°
2026-05-05 06:09 45.42481 25.38181 37638 ft 418 kts 320°
2026-05-05 06:09 45.44628 25.35397 38093 ft 417 kts 320°
2026-05-05 06:10 45.48912 25.29832 38103 ft 418 kts 320°
2026-05-05 06:10 45.53166 25.24290 38102 ft 417 kts 320°
2026-05-05 06:11 45.57464 25.18682 38107 ft 419 kts 319°
2026-05-05 06:11 45.61735 25.13096 38106 ft 419 kts 320°
2026-05-05 06:12 45.66034 25.07462 38104 ft 419 kts 319°
2026-05-05 06:12 45.70315 25.01839 38094 ft 419 kts 319°
2026-05-05 06:13 45.74567 24.96240 38078 ft 417 kts 320°
2026-05-05 06:13 45.78917 24.90778 38080 ft 417 kts 323°
2026-05-05 06:14 45.83512 24.85724 38084 ft 418 kts 325°
2026-05-05 06:14 45.88141 24.80769 38074 ft 417 kts 325°
2026-05-05 06:15 45.92791 24.75754 38072 ft 419 kts 325°
2026-05-05 06:15 45.97432 24.70700 38085 ft 418 kts 324°
2026-05-05 06:16 46.02043 24.65646 38085 ft 418 kts 324°
2026-05-05 06:16 46.06637 24.60587 38081 ft 418 kts 324°
2026-05-05 06:17 46.11260 24.55483 38084 ft 419 kts 324°
2026-05-05 06:17 46.15841 24.50413 38083 ft 418 kts 324°
2026-05-05 06:18 46.20456 24.45295 38080 ft 419 kts 324°
2026-05-05 06:18 46.25072 24.40163 38084 ft 418 kts 324°
2026-05-05 06:19 46.29657 24.35056 38086 ft 418 kts 324°
2026-05-05 06:19 46.34250 24.29931 38078 ft 418 kts 324°
2026-05-05 06:20 46.38833 24.24805 38075 ft 419 kts 323°
2026-05-05 06:20 46.43430 24.19651 38070 ft 418 kts 324°
2026-05-05 06:21 46.47994 24.14524 38078 ft 419 kts 324°
2026-05-05 06:21 46.52597 24.09340 38080 ft 419 kts 324°
2026-05-05 06:22 46.57179 24.04169 38083 ft 419 kts 324°
2026-05-05 06:22 46.61772 23.98973 38072 ft 419 kts 324°
2026-05-05 06:23 46.66338 23.93799 38075 ft 419 kts 324°
2026-05-05 06:23 46.70922 23.88591 38069 ft 418 kts 323°
2026-05-05 06:24 46.75492 23.83389 38071 ft 418 kts 323°
2026-05-05 06:24 46.80066 23.78170 38069 ft 418 kts 323°
2026-05-05 06:25 46.84612 23.72973 38067 ft 418 kts 323°
2026-05-05 06:25 46.89170 23.67749 38063 ft 419 kts 323°
2026-05-05 06:26 46.93751 23.62487 38056 ft 419 kts 323°
2026-05-05 06:26 46.98310 23.57240 38061 ft 420 kts 323°
2026-05-05 06:27 47.05173 23.49313 38060 ft 418 kts 323°
2026-05-05 06:28 47.09704 23.44067 38055 ft 418 kts 323°
2026-05-05 06:28 47.14261 23.38780 38048 ft 418 kts 323°
2026-05-05 06:29 47.18813 23.33491 38049 ft 419 kts 322°
2026-05-05 06:29 47.23360 23.28192 38045 ft 418 kts 322°
2026-05-05 06:30 47.27899 23.22890 38043 ft 419 kts 322°
2026-05-05 06:30 47.32452 23.17562 38042 ft 419 kts 322°
2026-05-05 06:31 47.36997 23.12228 38044 ft 419 kts 322°
2026-05-05 06:31 47.41549 23.06875 38043 ft 419 kts 322°
2026-05-05 06:32 47.46078 23.01537 38050 ft 418 kts 322°
2026-05-05 06:32 47.50603 22.96192 38049 ft 418 kts 322°
2026-05-05 06:33 47.55154 22.90801 38042 ft 418 kts 322°
2026-05-05 06:33 47.59678 22.85433 38042 ft 418 kts 322°
2026-05-05 06:34 47.64188 22.80071 38042 ft 419 kts 322°
2026-05-05 06:34 47.68718 22.74672 38044 ft 419 kts 322°
2026-05-05 06:35 47.73243 22.69262 38044 ft 419 kts 322°
2026-05-05 06:35 47.77758 22.63856 38037 ft 419 kts 322°
2026-05-05 06:36 47.82252 22.58460 38034 ft 419 kts 322°
2026-05-05 06:36 47.86791 22.53000 38033 ft 419 kts 322°
2026-05-05 06:37 47.91307 22.47553 38030 ft 419 kts 322°
2026-05-05 06:37 47.95783 22.42143 38023 ft 417 kts 322°
2026-05-05 06:38 48.00285 22.36689 38022 ft 418 kts 322°
2026-05-05 06:38 48.04795 22.31215 38025 ft 419 kts 321°
2026-05-05 06:39 48.09302 22.25731 38024 ft 419 kts 321°
2026-05-05 06:39 48.13822 22.20218 38031 ft 419 kts 321°
2026-05-05 06:40 48.18311 22.14729 38030 ft 418 kts 321°
2026-05-05 06:40 48.22773 22.09259 38029 ft 418 kts 321°
2026-05-05 06:41 48.27253 22.03754 38029 ft 418 kts 321°
2026-05-05 06:41 48.31751 21.98217 38022 ft 418 kts 321°
2026-05-05 06:42 48.36278 21.92784 38022 ft 418 kts 324°
2026-05-05 06:42 48.41135 21.87966 38023 ft 418 kts 328°
2026-05-05 06:43 48.46063 21.83471 37739 ft 411 kts 329°
2026-05-05 06:43 48.48476 21.81286 37485 ft 404 kts 329°
2026-05-05 06:43 48.50872 21.79108 37155 ft 398 kts 329°
2026-05-05 06:43 48.53216 21.76967 36655 ft 398 kts 329°
2026-05-05 06:44 48.55567 21.74809 36227 ft 397 kts 329°
2026-05-05 06:44 48.57929 21.72631 35795 ft 397 kts 329°
2026-05-05 06:44 48.60273 21.70462 35362 ft 396 kts 328°
2026-05-05 06:44 48.62610 21.68294 34928 ft 395 kts 328°
2026-05-05 06:45 48.64920 21.66145 34453 ft 395 kts 328°
2026-05-05 06:45 48.67272 21.63953 33951 ft 394 kts 328°
2026-05-05 06:45 48.69575 21.61804 33461 ft 393 kts 328°
2026-05-05 06:45 48.71883 21.59648 32965 ft 393 kts 328°
2026-05-05 06:46 48.74191 21.57489 32471 ft 392 kts 329°
2026-05-05 06:46 48.76509 21.55318 31975 ft 391 kts 329°
2026-05-05 06:46 48.78803 21.53167 31482 ft 391 kts 329°
2026-05-05 06:46 48.81131 21.50983 30982 ft 390 kts 329°
2026-05-05 06:47 48.83402 21.48850 30495 ft 389 kts 329°
2026-05-05 06:47 48.85699 21.46689 30012 ft 388 kts 329°
2026-05-05 06:47 48.87981 21.44540 29535 ft 388 kts 329°
2026-05-05 06:47 48.90282 21.42372 29052 ft 387 kts 329°
2026-05-05 06:48 48.92525 21.40256 28582 ft 386 kts 328°
2026-05-05 06:48 48.94800 21.38107 28106 ft 385 kts 328°
2026-05-05 06:48 48.97079 21.35951 27626 ft 384 kts 328°
2026-05-05 06:48 48.99327 21.33823 27154 ft 383 kts 328°
2026-05-05 06:49 49.01592 21.31676 26678 ft 383 kts 328°
2026-05-05 06:49 49.03834 21.29548 26205 ft 382 kts 328°
2026-05-05 06:49 49.06084 21.27410 25729 ft 381 kts 328°
2026-05-05 06:49 49.08306 21.25297 25260 ft 380 kts 327°
2026-05-05 06:50 49.10550 21.23161 24777 ft 379 kts 327°
2026-05-05 06:50 49.12790 21.21027 24288 ft 378 kts 327°
2026-05-05 06:50 49.15009 21.18912 23648 ft 382 kts 327°
2026-05-05 06:50 49.17260 21.16763 23000 ft 385 kts 327°
2026-05-05 06:51 49.19554 21.14571 22348 ft 388 kts 327°
2026-05-05 06:51 49.21815 21.12407 21710 ft 390 kts 327°
2026-05-05 06:51 49.24123 21.10197 21061 ft 392 kts 326°
2026-05-05 06:51 49.26449 21.07967 20409 ft 394 kts 326°
2026-05-05 06:52 49.28754 21.05754 19775 ft 395 kts 326°
2026-05-05 06:52 49.31091 21.03508 19137 ft 397 kts 326°
2026-05-05 06:52 49.33412 21.01274 18500 ft 397 kts 325°
2026-05-05 06:52 49.35703 20.98936 17865 ft 397 kts 322°
2026-05-05 06:53 49.37915 20.96443 17229 ft 396 kts 320°
2026-05-05 06:53 49.40100 20.93861 16595 ft 396 kts 320°
2026-05-05 06:53 49.42249 20.91293 15966 ft 396 kts 320°
2026-05-05 06:53 49.44432 20.88696 15325 ft 395 kts 320°
2026-05-05 06:54 49.46585 20.86160 14700 ft 395 kts 320°
2026-05-05 06:54 49.48766 20.83610 14072 ft 394 kts 320°
2026-05-05 06:54 49.50950 20.81070 13494 ft 392 kts 321°
2026-05-05 06:54 49.53094 20.78582 12876 ft 391 kts 321°
2026-05-05 06:55 49.55275 20.76050 12249 ft 390 kts 320°
2026-05-05 06:55 49.57406 20.73575 11638 ft 388 kts 320°
2026-05-05 06:55 49.59562 20.71067 11009 ft 387 kts 320°
2026-05-05 06:55 49.61704 20.68572 10395 ft 385 kts 321°
2026-05-05 06:56 49.63824 20.66100 10020 ft 376 kts 320°
2026-05-05 06:56 49.65858 20.63731 9965 ft 360 kts 320°
2026-05-05 06:56 49.67811 20.61453 9963 ft 343 kts 320°
2026-05-05 06:56 49.69642 20.59314 9958 ft 327 kts 320°
2026-05-05 06:57 49.71409 20.57244 9957 ft 313 kts 320°
2026-05-05 06:57 49.73119 20.55239 9958 ft 299 kts 320°
2026-05-05 06:57 49.74730 20.53345 9956 ft 286 kts 320°
2026-05-05 06:57 49.76280 20.51522 9953 ft 273 kts 319°
2026-05-05 06:58 49.77770 20.49766 9776 ft 268 kts 319°
2026-05-05 06:58 49.79235 20.48035 9519 ft 267 kts 319°
2026-05-05 06:58 49.80705 20.46298 9188 ft 269 kts 319°
2026-05-05 06:58 49.82192 20.44541 8847 ft 271 kts 320°
2026-05-05 06:59 49.83698 20.42764 8503 ft 272 kts 320°
2026-05-05 06:59 49.85215 20.40974 8157 ft 274 kts 320°
2026-05-05 06:59 49.86718 20.39200 7817 ft 275 kts 320°
2026-05-05 06:59 49.88249 20.37391 7467 ft 276 kts 321°
2026-05-05 07:00 49.89771 20.35591 7127 ft 277 kts 321°
2026-05-05 07:00 49.91298 20.33784 6782 ft 278 kts 321°
2026-05-05 07:00 49.92824 20.31976 6441 ft 278 kts 321°
2026-05-05 07:00 49.94369 20.30142 6097 ft 279 kts 321°
2026-05-05 07:01 49.95913 20.28310 5758 ft 279 kts 321°
2026-05-05 07:01 49.97451 20.26484 5463 ft 278 kts 321°
2026-05-05 07:01 49.98966 20.24684 5175 ft 277 kts 321°
2026-05-05 07:01 50.00483 20.22879 4883 ft 275 kts 321°
2026-05-05 07:02 50.02010 20.21061 4589 ft 274 kts 321°
2026-05-05 07:02 50.03526 20.19254 4289 ft 273 kts 321°
2026-05-05 07:02 50.05022 20.17469 4025 ft 271 kts 321°
2026-05-05 07:02 50.06484 20.15726 3973 ft 261 kts 321°
2026-05-05 07:03 50.07890 20.14048 3974 ft 247 kts 321°
2026-05-05 07:03 50.09205 20.12476 3965 ft 234 kts 321°
2026-05-05 07:03 50.10443 20.10971 3982 ft 218 kts 317°
2026-05-05 07:03 50.11417 20.09261 3951 ft 200 kts 294°
2026-05-05 07:04 50.11608 20.07289 3968 ft 180 kts 259°
2026-05-05 07:04 50.11394 20.05388 3972 ft 178 kts 258°
2026-05-05 07:04 50.11183 20.03473 3838 ft 177 kts 257°
2026-05-05 07:04 50.10947 20.01591 3594 ft 178 kts 256°
2026-05-05 07:05 50.10697 19.99705 3350 ft 179 kts 256°
2026-05-05 07:05 50.10441 19.97806 3105 ft 180 kts 256°
2026-05-05 07:05 50.10183 19.95911 2863 ft 181 kts 256°
2026-05-05 07:05 50.09920 19.94004 2615 ft 182 kts 256°
2026-05-05 07:06 50.09655 19.92069 2370 ft 183 kts 256°
2026-05-05 07:06 50.09387 19.90140 2122 ft 183 kts 256°
2026-05-05 07:06 50.09129 19.88263 1898 ft 173 kts 256°
2026-05-05 07:06 50.08882 19.86484 1651 ft 162 kts 257°
2026-05-05 07:07 50.08654 19.84831 1452 ft 155 kts 257°
2026-05-05 07:07 50.08430 19.83196 1285 ft 156 kts 257°
2026-05-05 07:07 50.08202 19.81545 1048 ft 157 kts 258°
2026-05-05 07:07 50.07969 19.79891 835 ft 155 kts 258°
2026-05-05 07:08 50.07759 19.78365 800 ft 115 kts 257°
2026-05-05 07:08 50.07634 19.77490 800 ft 52 kts 257°
2026-05-05 07:08 50.07577 19.77073 800 ft 23 kts 257°
2026-05-05 07:08 50.07549 19.76887 800 ft 11 kts 246°
2026-05-05 07:09 50.07494 19.76849 800 ft 9 kts 170°
2026-05-05 07:09 50.07408 19.76875 800 ft 13 kts 168°
2026-05-05 07:09 50.07321 19.76915 800 ft 12 kts 137°
2026-05-05 07:09 50.07320 19.77043 800 ft 12 kts 78°
2026-05-05 07:10 50.07345 19.77223 800 ft 20 kts 78°
2026-05-05 07:10 50.07381 19.77482 800 ft 27 kts 77°
2026-05-05 07:10 50.07422 19.77767 800 ft 26 kts 78°
2026-05-05 07:10 50.07458 19.78043 800 ft 25 kts 78°
2026-05-05 07:11 50.07497 19.78313 800 ft 26 kts 78°
2026-05-05 07:11 50.07533 19.78582 800 ft 25 kts 78°
2026-05-05 07:11 50.07570 19.78843 800 ft 24 kts 77°
2026-05-05 07:11 50.07605 19.79092 800 ft 23 kts 78°
2026-05-05 07:12 50.07635 19.79316 800 ft 19 kts 76°
2026-05-05 07:12 50.07663 19.79506 800 ft 16 kts 78°
2026-05-05 07:12 50.07682 19.79648 800 ft 9 kts 88°
2026-05-05 07:12 50.07641 19.79696 800 ft 6 kts 166°
2026-05-05 07:13 50.07605 19.79710 800 ft 4 kts 166°
2026-05-05 07:13 50.07570 19.79723 800 ft 5 kts 167°
2026-05-05 07:13 50.07542 19.79725 800 ft 3 kts 201°
2026-05-05 07:13 50.07530 19.79690 800 ft 3 kts 254°
2026-05-05 07:14 50.07527 19.79672 800 ft 0 kts 257°